Gainesville, GA

1:02 AM EDT on May 24, 2017 (GMT -0400)
Gilmer Memorial

Weather History for KGVL - January, 2012

Change the Weather History Date:

Wednesday, January 18, 2012

  Actual Average Record
Temperature  
Mean Temperature 44 °F 42 °F  
Max Temperature 55 °F 50 °F 72 °F (2017)
Min Temperature 32 °F 33 °F 6 °F (1977)
Degree Days  
Heating Degree Days 22 23  
Month to date heating degree days 430  
Since 1 July heating degree days 1626  
Moisture  
Dew Point 31 °F    
Average Humidity 68    
Maximum Humidity 94    
Minimum Humidity 34    
Precipitation  
Precipitation 0.02 in 0.17 in 1.73 in (1980)
Month to date precipitation 2.55  
Year to date precipitation 2.55  
Snow  
Snow 0.00 in - - ()
Month to date snowfall  
Since 1 July snowfall  
Snow Depth -    
Sea Level Pressure  
Sea Level Pressure 30.05 in    
Wind  
Wind Speed 10 mph (WNW)    
Max Wind Speed 14 mph    
Max Gust Speed 22 mph    
Visibility 10 miles    
Events Rain    
T = Trace of Precipitation, MM = Missing Value Source: NWS Daily Summary

Daily Weather History Graph

Daily Weather History Graph

Search for Another Location

Airport or City:

Trip Planner

Search our weather history database for the weather conditions in past years. The results will help you decide how hot, cold, wet, or windy it might be!

Date:

Astronomy

Jan. 18, 2012 Rise Set
Actual Time 7:40 AM EST 5:51 PM EST
Civil Twilight 7:13 AM EST 6:18 PM EST
Nautical Twilight 6:42 AM EST 6:48 PM EST
Astronomical Twilight 6:12 AM EST 7:18 PM EST
Moon 3:07 AM EST (1/18) 1:30 PM EST (1/18)
Length of Visible Light 11h 04m
Length of Day
10h 10m
Waning Crescent, 25% of the Moon is Illuminated
Jan 18
Waning Crescent
Jan 23
New
Jan 30
First Quarter
Feb 7
Full
Feb 14
Last Quarter

Hourly Weather History & Observations

Time (EST) Temp. Windchill Dew Point Humidity Pressure Visibility Wind Dir Wind Speed Gust Speed Precip Events Conditions
12:28 AM 55.4 °F - 53.6 °F 94% 29.98 in 10.0 mi West 9.2 mph - 0.01 in   Overcast
12:53 AM 53.1 °F - 48.9 °F 86% 29.97 in 10.0 mi NW 11.5 mph - 0.02 in Rain Light Rain
1:36 AM 51.8 °F - 46.4 °F 82% 29.98 in 10.0 mi WNW 11.5 mph - 0.00 in   Overcast
1:53 AM 51.1 °F - 46.0 °F 83% 29.97 in 10.0 mi NW 10.4 mph - 0.00 in   Overcast
2:53 AM 48.0 °F - 37.0 °F 66% 29.98 in 10.0 mi NW 8.1 mph - N/A   Clear
3:53 AM 44.1 °F 37.7 °F 30.9 °F 60% 29.99 in 10.0 mi NW 12.7 mph 19.6 mph N/A   Clear
4:53 AM 41.0 °F 35.2 °F 32.0 °F 70% 30.01 in 10.0 mi West 9.2 mph - N/A   Clear
5:53 AM 37.9 °F 30.9 °F 30.9 °F 76% 30.03 in 10.0 mi WNW 10.4 mph - N/A   Clear
6:53 AM 36.0 °F 30.3 °F 30.9 °F 82% 30.05 in 10.0 mi West 6.9 mph - N/A   Clear
7:53 AM 34.0 °F 25.5 °F 30.0 °F 85% 30.07 in 9.0 mi West 11.5 mph - N/A   Clear
8:53 AM 35.1 °F 28.6 °F 30.0 °F 82% 30.09 in 8.0 mi WNW 8.1 mph - N/A   Clear
9:53 AM 37.0 °F 29.3 °F 30.0 °F 76% 30.10 in 10.0 mi WNW 11.5 mph - N/A   Clear
10:53 AM 39.9 °F 32.9 °F 28.9 °F 65% 30.10 in 10.0 mi NW 11.5 mph - N/A   Clear
11:53 AM 42.1 °F 36.6 °F 30.0 °F 62% 30.09 in 10.0 mi West 9.2 mph - N/A   Clear
12:53 PM 46.0 °F 41.0 °F 28.9 °F 51% 30.06 in 10.0 mi WNW 10.4 mph - N/A   Clear
1:53 PM 46.9 °F - 30.0 °F 52% 30.04 in 10.0 mi West 12.7 mph - N/A   Clear
2:53 PM 46.9 °F - 26.1 °F 44% 30.04 in 10.0 mi West 10.4 mph 21.9 mph N/A   Clear
3:53 PM 46.9 °F - 19.9 °F 34% 30.06 in 10.0 mi WNW 13.8 mph 19.6 mph N/A   Clear
4:53 PM 45.0 °F 40.1 °F 26.1 °F 48% 30.06 in 10.0 mi West 9.2 mph - N/A   Clear
5:53 PM 42.1 °F 36.1 °F 27.0 °F 55% 30.07 in 10.0 mi West 10.4 mph - N/A   Clear
6:53 PM 39.0 °F 32.3 °F 25.0 °F 57% 30.08 in 10.0 mi West 10.4 mph - N/A   Clear
7:53 PM 36.0 °F 29.0 °F 24.1 °F 62% 30.11 in 10.0 mi West 9.2 mph - N/A   Clear
8:53 PM 34.0 °F 28.0 °F 24.1 °F 67% 30.10 in 10.0 mi WNW 6.9 mph - N/A   Clear
9:53 PM 33.1 °F 27.7 °F 24.1 °F 70% 30.09 in 10.0 mi West 5.8 mph - N/A   Clear
10:53 PM 32.0 °F 26.4 °F 24.1 °F 73% 30.10 in 10.0 mi WNW 5.8 mph - N/A   Clear
11:53 PM 32.0 °F 26.4 °F 24.1 °F 73% 30.10 in 10.0 mi WNW 5.8 mph - N/A   Mostly Cloudy